Temp
4 4 4 4 4 5 5 5 6 6 6 6 7 7 7 7 8 8 8 8 8 8 8 8 8 8 8 8 8 8 8 8 8 8 8 8 8 8 8 8 8 8 8 8 8 8 8 8 8 8 9 9 9 9 9 10 10 10 10 10 10 10 10 10 10 11 11 11 11
4 4 4 4 4 5 5 5 6 6 6 6 7 7 7 7 7 8 8 8 8 8 8 8 8 8 8 8 8 8 8 8 8 8 8 8 8 8 8 8 8 8 8 8 8 8 8 8 8 8 8 8 9 9 9 9 10 10 10 10 10 10 10 10 10 10 11 11 11
4 4 4 4 5 5 5 5 6 6 6 6 7 7 7 7 8 8 8 8 8 8 8 8 8 8 8 8 8 8 8 8 8 8 8 8 8 8 8 8 8 8 8 8 8 8 8 8 8 8 8 8 8 9 9 9 9 9 10 10 10 10 10 10 10 10 10 11 11
4 5 5 5 5 5 5 5 6 6 6 7 7 7 7 7 7 8 8 8 8 8 8 8 8 8 8 8 8 8 8 8 8 8 8 8 8 8 8 8 8 8 8 8 8 8 8 8 8 8 8 8 8 8 9 9 9 9 9 9 9 10 10 10 10 10 10 10 11
5 5 5 5 5 5 5 5 6 6 6 6 7 7 7 7 7 7 7 8 8 8 8 8 8 8 8 8 8 8 8 8 8 8 8 8 8 8 8 8 8 8 8 8 8 8 8 8 8 8 8 8 8 8 8 9 9 9 9 9 9 9 10 10 10 10 10 10 10
5 5 5 5 5 5 5 5 5 6 6 6 6 6 7 7 7 7 7 7 7 8 8 8 8 8 8 8 8 8 8 8 8 8 8 8 8 8 8 8 8 8 8 8 8 8 8 8 8 8 8 8 8 8 8 8 9 9 9 9 9 9 10 10 10 10 10 10 10
6 6 6 6 5 5 5 5 5 6 6 6 6 6 6 6 7 7 7 7 7 7 7 7 7 8 8 8 8 8 8 8 8 8 8 8 8 8 8 8 8 8 8 8 8 8 8 8 8 8 7 8 8 8 8 8 8 9 9 9 9 9 9 10 10 10 10 10 10
6 6 6 6 6 6 6 6 6 6 6 6 6 6 6 6 6 6 7 7 7 7 7 7 7 7 7 7 7 7 7 7 7 7 8 8 8 8 8 8 8 8 8 8 8 8 8 8 8 8 8 8 8 8 8 8 8 8 9 9 9 9 9 9 10 10 10 10 10
5 5 5 6 6 6 6 6 6 6 6 6 6 6 6 6 6 6 6 7 7 7 7 7 7 7 7 7 7 7 7 7 7 7 7 7 7 8 8 8 8 8 8 7 8 8 8 8 8 8 8 8 8 8 8 8 8 8 8 9 9 9 9 9 9 10 10 10 10
5 5 5 5 5 5 6 6 6 6 6 6 6 6 6 6 6 6 6 6 6 6 7 7 7 7 7 7 7 7 7 7 7 7 7 7 7 7 7 7 7 7 7 7 7 8 8 8 8 8 8 8 8 8 8 8 8 8 8 8 9 9 9 9 9 9 9 10 10
4 5 5 5 5 5 6 6 6 6 6 6 6 6 6 6 6 6 6 6 6 6 6 7 7 7 7 7 7 7 7 7 7 7 7 7 7 7 7 7 7 7 7 7 7 7 8 8 8 8 8 8 8 8 8 8 8 8 8 8 8 9 9 9 9 9 9 9 10
4 4 4 5 5 5 6 6 6 6 6 6 6 6 6 6 6 6 7 7 6 6 6 6 6 6 6 6 7 7 7 7 7 7 7 7 7 7 7 7 7 6 6 7 7 7 7 8 8 8 8 8 8 8 8 8 9 9 9 9 9 9 9 9 9 9 9 9 10
3 4 4 4 4 5 5 5 6 6 6 6 6 6 6 6 6 6 6 6 7 7 7 7 7 7 7 7 7 7 7 7 7 7 7 7 7 7 7 7 7 6 6 7 7 7 7 7 7 8 8 8 8 8 8 8 9 9 9 9 9 9 9 9 9 9 9 9 10
3 3 4 4 4 4 5 5 5 5 5 5 5 5 5 6 6 6 6 6 6 6 7 7 7 7 7 7 7 7 7 7 7 7 7 7 6 7 7 7 7 7 7 7 7 7 7 7 7 7 7 7 7 7 7 8 8 8 9 9 9 9 9 9 9 9 9 9 9
3 3 3 3 4 4 4 4 4 4 4 4 4 4 5 5 5 6 6 6 6 6 6 6 7 7 7 7 7 7 7 7 7 7 7 7 6 7 7 7 7 7 7 7 7 7 7 7 7 7 7 7 7 7 7 7 8 8 8 8 8 8 8 8 8 9 9 9 9
3 3 3 3 3 3 3 3 3 3 3 3 3 4 4 4 5 5 5 5 6 6 6 6 7 7 7 7 7 7 7 7 7 7 7 7 7 7 7 7 7 7 7 7 7 7 7 7 7 7 7 7 7 7 7 7 7 7 8 8 8 8 8 8 8 9 9 9 9
3 3 3 3 3 3 2 2 2 2 3 3 3 3 3 4 4 4 4 5 5 6 6 6 7 7 7 7 7 7 7 7 7 7 7 7 7 7 7 7 7 7 7 7 7 7 7 7 7 7 7 7 7 7 7 7 7 7 8 8 8 8 8 8 9 9 9 9 9
3 3 3 3 2 2 2 2 2 2 3 3 3 3 3 3 3 4 4 4 5 5 5 6 6 6 7 7 7 7 7 7 7 7 7 7 7 7 7 7 7 7 7 7 7 7 7 7 7 7 7 7 7 7 7 7 7 7 8 8 8 8 8 8 9 9 9 9 9
3 3 2 2 2 2 2 2 2 2 2 3 3 3 3 3 3 3 3 4 4 4 4 5 6 6 6 7 7 7 7 7 7 7 7 7 7 7 7 7 7 7 7 7 7 7 7 7 7 7 7 7 7 7 7 7 7 7 8 8 8 8 8 8 8 9 9 9 9
3 3 2 2 2 1 1 1 1 2 2 2 2 3 3 3 4 4 3 3 3 3 4 4 5 6 6 6 6 6 6 7 7 7 7 7 7 7 7 7 7 7 7 7 7 7 7 7 7 7 7 7 7 7 7 8 8 8 8 8 8 8 8 8 8 8 8 9 9
3 2 2 2 1 1 1 1 1 1 1 2 2 2 3 3 3 3 3 3 3 3 3 3 4 5 6 6 6 6 6 6 6 6 6 6 7 7 7 7 7 7 7 7 7 7 7 8 7 7 7 8 8 8 8 8 8 8 8 8 8 8 8 8 8 8 9 9 9
3 3 2 2 2 2 1 1 1 1 1 2 2 2 2 2 2 3 3 3 3 3 3 3 3 4 5 6 6 6 6 6 6 6 6 6 6 6 7 7 7 7 7 8 8 8 8 8 8 8 8 8 8 8 8 8 8 8 8 8 8 8 8 8 8 9 9 9 9
3 3 3 3 2 2 2 2 2 2 2 2 2 2 2 2 2 2 2 3 3 3 2 2 2 3 4 5 5 6 6 6 6 6 6 6 6 6 6 6 7 7 7 7 8 8 8 7 8 8 8 8 8 8 8 8 8 9 9 8 8 8 9 9 9 9 9 9 9
3 3 3 3 3 2 2 2 2 2 2 2 2 2 2 2 2 2 2 2 2 2 2 2 2 2 3 4 5 5 5 6 6 6 6 6 6 6 6 6 6 6 6 5 5 5 5 5 6 7 7 8 8 8 8 8 9 9 9 9 9 9 9 9 9 10 10 10 9
4 4 3 3 3 3 3 3 3 2 2 2 2 2 2 2 2 2 2 2 2 2 2 2 2 2 3 3 4 5 5 5 5 5 5 5 5 6 5 5 5 5 5 5 5 5 5 5 6 6 7 7 8 8 9 9 9 9 9 9 9 9 9 9 9 9 9 9 10
4 4 4 3 3 3 3 3 3 2 2 2 2 2 2 2 2 2 2 2 2 2 2 2 2 2 3 3 4 4 5 5 5 5 5 5 5 5 5 5 5 5 5 5 6 6 6 6 6 6 7 7 8 8 9 9 9 9 9 9 9 9 9 9 9 9 9 9 10
4 4 4 3 3 3 3 2 3 3 3 2 2 2 2 2 2 2 2 2 2 2 2 2 2 3 3 3 3 4 4 4 5 5 5 4 4 4 4 5 5 5 5 5 6 6 6 6 6 6 7 7 8 8 9 9 9 9 9 9 9 9 9 9 9 9 9 9 9
3 3 4 4 3 3 3 3 3 3 3 2 2 2 2 2 2 2 2 2 2 2 2 3 3 3 3 3 3 3 3 4 4 4 4 4 3 3 3 4 4 4 5 5 5 5 5 6 6 6 6 7 7 8 9 9 9 9 9 9 9 9 9 9 9 9 9 9 9
3 3 3 3 3 3 3 3 3 3 3 2 2 2 2 2 2 2 2 2 2 2 2 2 2 2 3 3 3 3 3 3 3 3 3 3 2 2 3 3 3 3 4 4 4 5 5 5 5 5 6 6 7 7 8 9 9 9 9 10 10 10 10 10 9 9 9 9 9
2 3 3 3 3 3 3 4 4 4 4 3 3 3 2 2 2 1 1 1 1 1 0 1 1 2 2 2 3 3 3 3 2 2 2 2 2 2 2 2 2 3 3 4 4 4 4 4 5 5 5 6 6 7 7 8 8 9 9 10 10 10 10 10 10 9 9 9 9
2 2 2 2 2 3 3 3 3 4 4 4 4 3 3 3 2 1 1 1 0 -0 -1 -0 0 1 1 1 2 2 2 2 2 2 2 2 2 2 2 2 2 2 3 3 3 4 4 4 4 5 5 5 5 6 6 7 7 8 9 9 10 10 10 10 10 10 10 10 10
0 1 1 1 1 2 2 2 2 3 3 3 3 3 3 3 2 1 1 1 1 -0 -1 -1 -0 -0 0 0 1 1 1 2 2 2 2 2 2 2 2 2 2 2 2 2 3 3 4 4 4 4 4 4 5 5 5 6 7 7 8 9 9 10 10 10 10 10 10 10 10
-1 -1 -1 -1 -0 0 0 1 1 1 2 2 2 3 3 3 2 2 2 2 1 -0 -1 -1 -1 -1 -1 -0 -0 -0 -0 0 1 1 2 2 2 2 2 2 2 2 2 2 2 3 3 4 4 4 4 4 4 5 5 5 6 6 7 8 9 9 10 10 10 10 10 10 10
-3 -3 -3 -2 -2 -2 -1 -1 -1 -0 0 0 1 1 1 1 2 2 2 1 1 -0 -1 -1 -2 -2 -2 -1 -1 -0 -1 -1 -0 0 1 1 2 2 2 2 2 2 2 2 2 2 2 3 3 4 4 4 4 4 5 5 5 6 6 7 8 9 9 10 10 10 10 10 10
-5 -5 -4 -4 -4 -4 -3 -3 -3 -2 -2 -2 -2 -1 -1 -0 -0 0 0 1 1 0 -1 -1 -2 -2 -2 -1 -1 -1 -1 -1 -1 -1 -0 0 1 2 2 2 2 2 2 2 2 2 2 2 3 3 3 4 4 4 4 4 5 5 6 6 7 8 9 9 9 10 10 10 10
-6 -5 -5 -5 -5 -5 -4 -4 -4 -4 -4 -4 -4 -3 -3 -2 -2 -1 -1 0 1 0 -0 -1 -1 -2 -2 -2 -1 -1 -1 -1 -1 -1 -1 -1 -0 0 1 1 2 2 2 2 1 1 1 2 2 3 3 3 3 3 4 4 4 5 5 6 6 7 8 9 9 9 9 10 10
-6 -6 -5 -5 -5 -5 -5 -4 -4 -4 -4 -4 -5 -4 -4 -4 -4 -3 -2 -1 -1 -0 -0 -0 -1 -1 -2 -2 -2 -2 -1 -1 -1 -0 -0 -1 -1 -1 -0 0 1 1 1 1 1 1 1 1 1 2 3 3 3 3 3 3 4 4 5 5 6 6 7 7 8 8 9 9 9
-5 -5 -5 -5 -4 -4 -4 -4 -4 -4 -4 -4 -4 -5 -5 -4 -4 -4 -4 -3 -2 -2 -1 -1 -1 -1 -1 -1 -1 -2 -1 -1 -1 -1 -0 -0 -1 -1 -1 -0 0 1 1 1 1 1 1 1 1 1 2 2 3 3 2 3 3 3 4 5 5 6 6 6 7 7 8 8 9
-5 -5 -4 -4 -4 -4 -4 -4 -4 -3 -3 -4 -4 -4 -4 -4 -4 -5 -4 -4 -3 -3 -2 -2 -1 -1 -1 -0 -1 -1 -1 -1 -1 -1 -1 -0 -0 -1 -1 -1 -1 -0 0 1 1 1 0 0 0 1 1 2 2 2 2 2 3 3 3 4 5 5 6 6 6 7 7 8 8
-4 -4 -3 -3 -3 -3 -3 -3 -3 -3 -3 -3 -4 -4 -4 -4 -4 -5 -5 -4 -4 -4 -3 -3 -2 -1 -1 -0 -0 -0 -0 -1 -1 -1 -1 -1 -1 -0 -1 -1 -1 -1 -0 0 0 0 0 -0 -0 -0 0 1 1 1 2 2 3 3 3 4 4 4 5 6 6 6 7 7 8
-3 -3 -2 -2 -2 -2 -2 -3 -2 -2 -2 -3 -4 -4 -4 -4 -4 -4 -5 -4 -4 -4 -4 -4 -3 -2 -2 -1 -1 -0 -0 -1 -1 -1 -1 -2 -1 -1 -1 -1 -1 -1 -1 -0 -0 0 -0 -0 -0 -0 -0 -0 0 1 1 1 2 3 3 3 3 4 4 5 5 6 6 7 7
Height
1407 1407 1407 1408 1408 1409 1409 1409 1410 1410 1410 1411 1411 1411 1412 1412 1412 1412 1413 1413 1413 1413 1413 1412 1412 1412 1412 1413 1413 1413 1413 1413 1413 1414 1414 1414 1414 1414 1414 1414 1414 1415 1416 1416 1417 1418 1418 1418 1419 1419 1419 1419 1419 1420 1420 1420 1421 1422 1422 1421 1421 1421 1422 1423 1423 1424 1425 1427 1427
1406 1407 1407 1407 1408 1408 1408 1408 1409 1409 1409 1409 1409 1410 1410 1410 1410 1411 1411 1411 1411 1411 1411 1410 1410 1410 1410 1410 1411 1411 1411 1411 1412 1412 1412 1412 1412 1412 1412 1412 1412 1413 1413 1413 1414 1415 1415 1416 1416 1416 1416 1416 1416 1416 1416 1417 1418 1418 1419 1418 1418 1418 1418 1419 1419 1420 1422 1423 1425
1406 1406 1406 1407 1407 1407 1408 1408 1408 1408 1408 1408 1408 1408 1408 1408 1408 1408 1408 1409 1409 1409 1408 1408 1408 1408 1408 1408 1408 1409 1409 1409 1409 1409 1409 1409 1409 1409 1410 1410 1410 1410 1410 1411 1411 1411 1412 1413 1413 1413 1413 1413 1413 1413 1413 1413 1415 1415 1415 1415 1415 1415 1415 1415 1415 1417 1418 1420 1422
1405 1405 1406 1406 1406 1406 1407 1407 1407 1407 1407 1407 1407 1407 1407 1407 1407 1406 1406 1407 1407 1406 1406 1406 1405 1405 1405 1405 1406 1406 1407 1407 1407 1407 1407 1407 1407 1407 1407 1407 1407 1407 1408 1408 1408 1408 1408 1409 1410 1409 1409 1409 1409 1409 1410 1410 1411 1412 1412 1412 1412 1412 1411 1411 1412 1413 1415 1416 1418
1405 1405 1405 1405 1405 1406 1406 1406 1406 1406 1406 1406 1406 1406 1406 1405 1405 1405 1404 1404 1404 1404 1404 1403 1403 1403 1403 1403 1403 1403 1404 1404 1404 1404 1404 1404 1404 1404 1404 1404 1404 1404 1404 1405 1405 1405 1406 1406 1406 1406 1406 1406 1406 1406 1406 1407 1408 1408 1409 1409 1409 1408 1408 1408 1409 1410 1411 1412 1414
1405 1405 1405 1405 1405 1405 1405 1405 1405 1405 1405 1405 1405 1405 1404 1404 1404 1403 1403 1403 1402 1402 1402 1401 1401 1401 1401 1401 1401 1401 1401 1401 1401 1402 1402 1402 1402 1402 1402 1402 1401 1401 1402 1402 1402 1402 1403 1403 1403 1402 1402 1402 1402 1402 1403 1404 1405 1405 1405 1406 1406 1405 1405 1406 1406 1407 1408 1408 1410
1406 1406 1405 1405 1404 1404 1404 1404 1404 1404 1403 1403 1403 1403 1402 1403 1402 1402 1402 1401 1401 1400 1400 1399 1399 1399 1398 1398 1398 1398 1398 1398 1398 1398 1398 1398 1398 1399 1398 1398 1398 1398 1398 1398 1399 1399 1399 1399 1399 1398 1398 1398 1398 1398 1399 1400 1401 1401 1402 1402 1402 1402 1402 1403 1403 1403 1404 1405 1406
1406 1406 1406 1405 1405 1404 1403 1403 1403 1403 1402 1402 1401 1401 1401 1401 1400 1400 1400 1400 1399 1398 1398 1398 1397 1397 1397 1396 1396 1395 1395 1395 1395 1395 1395 1396 1396 1395 1395 1395 1396 1396 1396 1396 1396 1396 1396 1396 1395 1394 1394 1395 1395 1395 1395 1396 1397 1397 1397 1398 1398 1399 1399 1399 1400 1401 1401 1401 1402
1402 1403 1403 1403 1404 1404 1403 1403 1402 1401 1401 1400 1399 1399 1399 1399 1398 1398 1398 1398 1397 1396 1396 1395 1395 1395 1394 1394 1393 1393 1393 1392 1392 1392 1392 1392 1392 1392 1392 1392 1392 1393 1393 1393 1393 1393 1393 1393 1392 1391 1391 1392 1392 1391 1392 1392 1393 1393 1393 1393 1394 1395 1396 1396 1397 1398 1398 1398 1399
1401 1400 1400 1400 1400 1400 1400 1400 1400 1400 1400 1399 1398 1398 1397 1397 1396 1396 1395 1395 1394 1393 1393 1392 1392 1392 1392 1391 1391 1390 1390 1389 1389 1389 1388 1388 1388 1388 1388 1388 1388 1389 1389 1389 1389 1389 1389 1389 1388 1388 1388 1388 1388 1388 1388 1388 1388 1388 1388 1389 1390 1391 1392 1393 1393 1394 1395 1396 1396
1402 1401 1400 1399 1398 1398 1397 1397 1397 1398 1398 1398 1398 1397 1396 1395 1394 1393 1393 1392 1391 1391 1389 1389 1389 1388 1388 1388 1387 1387 1387 1386 1386 1386 1385 1385 1385 1384 1384 1384 1384 1385 1385 1386 1386 1386 1386 1385 1385 1385 1385 1385 1385 1385 1384 1384 1384 1383 1384 1384 1386 1387 1388 1388 1389 1390 1392 1393 1394
1403 1402 1401 1400 1399 1398 1398 1397 1396 1395 1395 1394 1394 1393 1393 1393 1392 1391 1390 1390 1388 1387 1386 1386 1385 1385 1385 1384 1384 1384 1383 1383 1383 1383 1382 1382 1381 1381 1381 1380 1380 1381 1381 1382 1382 1382 1382 1382 1382 1382 1382 1382 1382 1381 1381 1381 1380 1380 1379 1380 1381 1383 1383 1384 1385 1386 1388 1390 1391
1403 1402 1401 1400 1399 1398 1397 1396 1395 1394 1393 1392 1391 1390 1389 1388 1388 1388 1387 1387 1386 1384 1383 1383 1382 1382 1381 1381 1380 1380 1380 1380 1379 1379 1379 1378 1378 1377 1377 1376 1376 1376 1377 1378 1378 1378 1378 1378 1378 1378 1378 1378 1378 1378 1378 1378 1377 1376 1376 1376 1377 1378 1379 1379 1380 1382 1384 1386 1387
1402 1401 1400 1399 1398 1397 1396 1395 1394 1393 1392 1391 1389 1388 1387 1386 1385 1384 1383 1383 1382 1381 1380 1380 1379 1378 1378 1378 1377 1377 1377 1376 1376 1375 1375 1374 1374 1373 1373 1372 1372 1372 1373 1373 1374 1374 1374 1374 1374 1374 1374 1374 1375 1375 1375 1375 1374 1373 1373 1373 1374 1375 1376 1376 1377 1379 1381 1382 1383
1402 1401 1399 1398 1397 1396 1395 1394 1393 1392 1391 1389 1388 1387 1385 1384 1383 1382 1381 1379 1378 1378 1377 1377 1377 1376 1375 1374 1374 1373 1373 1373 1372 1372 1371 1371 1370 1370 1369 1368 1368 1368 1368 1369 1369 1369 1369 1369 1370 1370 1370 1370 1371 1371 1371 1372 1371 1371 1371 1371 1371 1372 1373 1374 1375 1376 1377 1378 1378
1402 1401 1399 1398 1397 1396 1395 1394 1393 1392 1390 1389 1388 1386 1384 1383 1381 1380 1378 1378 1376 1376 1375 1374 1374 1373 1373 1372 1371 1371 1370 1370 1369 1369 1368 1368 1367 1366 1365 1364 1364 1363 1364 1364 1365 1365 1365 1364 1365 1365 1366 1366 1366 1367 1367 1367 1368 1368 1368 1368 1368 1368 1369 1371 1371 1372 1372 1373 1374
1403 1401 1400 1398 1397 1396 1395 1394 1393 1392 1390 1389 1387 1386 1384 1382 1380 1378 1377 1376 1375 1374 1373 1372 1371 1371 1370 1370 1369 1369 1368 1367 1367 1366 1365 1364 1363 1362 1361 1360 1359 1359 1359 1360 1360 1360 1360 1360 1360 1361 1361 1361 1361 1362 1362 1363 1363 1363 1363 1363 1364 1364 1365 1367 1368 1367 1367 1368 1370
1403 1402 1400 1399 1398 1397 1395 1394 1393 1392 1390 1389 1387 1385 1383 1382 1379 1378 1376 1375 1374 1373 1372 1370 1369 1368 1368 1368 1367 1367 1366 1365 1364 1363 1362 1360 1359 1358 1358 1357 1356 1355 1355 1355 1355 1355 1355 1356 1356 1356 1356 1356 1356 1356 1357 1357 1358 1358 1358 1359 1359 1360 1361 1363 1363 1363 1363 1364 1365
1404 1403 1401 1400 1398 1398 1396 1395 1393 1392 1390 1389 1387 1385 1383 1382 1380 1378 1375 1374 1373 1372 1371 1369 1367 1366 1365 1364 1363 1363 1362 1361 1360 1359 1358 1357 1356 1355 1354 1353 1352 1352 1351 1351 1351 1351 1351 1351 1351 1351 1351 1351 1351 1351 1351 1352 1352 1353 1353 1354 1355 1356 1357 1358 1358 1358 1359 1360 1361
1405 1403 1402 1401 1400 1398 1397 1395 1394 1393 1391 1389 1387 1386 1384 1382 1380 1378 1376 1374 1373 1372 1370 1368 1367 1364 1363 1362 1360 1359 1358 1357 1356 1355 1354 1353 1352 1352 1351 1350 1349 1348 1348 1347 1347 1347 1347 1347 1347 1346 1346 1345 1345 1345 1346 1347 1347 1348 1348 1349 1350 1351 1351 1353 1353 1354 1355 1356 1357
1406 1405 1403 1402 1400 1399 1398 1396 1395 1393 1391 1390 1388 1386 1384 1382 1381 1379 1378 1376 1373 1372 1370 1368 1366 1364 1363 1361 1360 1358 1357 1355 1354 1352 1351 1349 1348 1347 1346 1345 1345 1344 1344 1343 1343 1342 1342 1342 1342 1341 1341 1341 1340 1340 1340 1341 1342 1343 1343 1344 1345 1345 1346 1347 1348 1349 1350 1351 1352
1408 1406 1404 1403 1401 1400 1398 1397 1395 1393 1392 1390 1388 1386 1384 1383 1381 1379 1378 1376 1374 1372 1370 1368 1366 1364 1362 1360 1359 1358 1356 1355 1353 1352 1350 1348 1346 1344 1343 1341 1341 1341 1341 1341 1340 1339 1339 1339 1338 1338 1337 1336 1335 1334 1335 1335 1336 1337 1338 1339 1339 1340 1341 1342 1343 1344 1345 1347 1348
1408 1407 1405 1403 1402 1400 1398 1397 1395 1393 1392 1390 1388 1386 1384 1383 1381 1379 1377 1375 1374 1372 1370 1368 1366 1363 1362 1360 1358 1357 1355 1353 1352 1351 1349 1348 1346 1344 1342 1340 1338 1337 1338 1339 1339 1339 1338 1337 1336 1335 1333 1332 1330 1329 1330 1330 1331 1331 1332 1333 1334 1335 1337 1337 1338 1339 1341 1342 1344
1409 1408 1406 1404 1402 1400 1399 1397 1395 1393 1391 1389 1388 1386 1384 1383 1381 1379 1377 1375 1373 1371 1369 1367 1365 1363 1361 1359 1357 1355 1354 1353 1351 1350 1348 1347 1346 1344 1343 1340 1337 1334 1333 1332 1332 1331 1330 1329 1328 1326 1325 1324 1324 1324 1324 1325 1326 1327 1327 1328 1329 1331 1332 1333 1334 1335 1336 1337 1339
1409 1408 1406 1404 1403 1401 1399 1397 1395 1393 1391 1390 1388 1386 1384 1382 1380 1378 1377 1375 1373 1371 1369 1367 1365 1363 1360 1358 1356 1354 1353 1351 1350 1349 1348 1347 1346 1344 1343 1340 1337 1334 1331 1329 1327 1325 1323 1322 1320 1319 1318 1318 1318 1319 1320 1321 1321 1322 1323 1323 1325 1326 1327 1328 1330 1330 1331 1332 1334
1409 1408 1406 1404 1403 1401 1399 1397 1395 1393 1392 1390 1388 1386 1384 1382 1380 1378 1377 1374 1373 1371 1369 1367 1364 1363 1360 1358 1356 1354 1352 1351 1350 1349 1348 1347 1345 1343 1341 1339 1336 1333 1330 1328 1325 1323 1322 1320 1319 1318 1316 1315 1314 1315 1316 1316 1317 1318 1318 1319 1320 1321 1322 1323 1324 1325 1326 1328 1329
1410 1408 1406 1404 1402 1400 1398 1397 1395 1393 1391 1389 1388 1386 1384 1382 1380 1378 1376 1374 1372 1370 1368 1366 1364 1362 1360 1358 1356 1354 1352 1351 1349 1348 1347 1346 1344 1342 1340 1338 1335 1332 1329 1326 1324 1323 1322 1320 1318 1317 1314 1313 1311 1311 1312 1312 1313 1313 1314 1314 1315 1316 1317 1318 1319 1320 1322 1323 1324
1410 1408 1406 1404 1402 1400 1398 1396 1394 1393 1391 1389 1387 1386 1384 1382 1380 1378 1376 1374 1372 1370 1368 1366 1364 1362 1360 1358 1356 1354 1353 1351 1350 1348 1347 1345 1343 1342 1339 1337 1334 1332 1329 1326 1324 1323 1321 1319 1317 1315 1313 1310 1308 1308 1308 1309 1309 1310 1310 1310 1311 1311 1312 1313 1314 1316 1317 1318 1320
1411 1409 1407 1405 1403 1401 1398 1396 1394 1392 1390 1388 1387 1385 1383 1381 1379 1378 1376 1373 1371 1369 1368 1366 1364 1362 1360 1358 1356 1354 1353 1351 1349 1348 1346 1344 1343 1340 1338 1336 1334 1331 1329 1327 1325 1323 1320 1318 1316 1313 1311 1309 1307 1306 1305 1306 1307 1307 1307 1307 1307 1308 1308 1309 1310 1312 1313 1314 1315
1413 1410 1408 1406 1404 1402 1400 1398 1395 1393 1391 1389 1387 1385 1383 1381 1379 1377 1375 1373 1371 1369 1368 1366 1364 1362 1360 1358 1356 1354 1352 1350 1349 1347 1345 1343 1341 1339 1337 1334 1332 1330 1328 1326 1324 1322 1319 1317 1314 1312 1310 1308 1306 1304 1303 1303 1304 1304 1304 1303 1303 1304 1304 1305 1306 1307 1308 1309 1311
1413 1412 1409 1408 1405 1403 1401 1399 1397 1394 1392 1390 1388 1385 1383 1381 1379 1377 1375 1373 1371 1369 1368 1366 1364 1362 1360 1358 1356 1353 1352 1349 1348 1346 1343 1342 1339 1337 1335 1332 1330 1328 1326 1324 1322 1320 1317 1315 1312 1310 1308 1307 1305 1304 1302 1300 1300 1300 1300 1300 1300 1300 1300 1301 1301 1303 1304 1305 1306
1414 1413 1410 1408 1406 1404 1402 1400 1398 1396 1393 1391 1389 1386 1384 1382 1379 1378 1375 1373 1371 1369 1367 1365 1363 1361 1359 1357 1355 1353 1351 1348 1346 1344 1342 1340 1338 1335 1333 1330 1328 1326 1324 1322 1320 1318 1316 1313 1311 1308 1307 1305 1304 1303 1301 1299 1297 1295 1294 1295 1296 1296 1296 1296 1297 1298 1299 1301 1302
1414 1413 1411 1408 1407 1405 1403 1401 1398 1396 1394 1392 1390 1387 1385 1382 1380 1378 1375 1373 1371 1369 1367 1365 1363 1361 1359 1357 1354 1353 1350 1348 1346 1343 1341 1339 1336 1334 1332 1329 1327 1325 1323 1321 1319 1317 1314 1312 1310 1308 1306 1304 1303 1301 1299 1297 1295 1293 1290 1289 1289 1290 1292 1292 1293 1293 1294 1296 1298
1413 1411 1409 1408 1406 1404 1402 1400 1398 1396 1394 1392 1389 1388 1385 1383 1380 1378 1375 1373 1371 1369 1367 1366 1364 1362 1360 1358 1355 1353 1351 1348 1346 1343 1341 1338 1336 1333 1331 1329 1327 1324 1323 1320 1318 1316 1313 1311 1309 1307 1305 1303 1301 1299 1297 1295 1293 1291 1289 1287 1285 1284 1285 1288 1289 1290 1291 1292 1293
1412 1410 1408 1406 1404 1403 1401 1399 1397 1395 1393 1390 1388 1387 1385 1383 1381 1378 1376 1373 1371 1369 1368 1366 1364 1362 1359 1357 1355 1353 1350 1348 1346 1343 1341 1338 1335 1333 1330 1328 1326 1324 1322 1320 1317 1315 1313 1310 1308 1306 1304 1303 1301 1298 1297 1294 1292 1290 1288 1285 1283 1282 1282 1282 1285 1287 1288 1288 1288
1411 1409 1407 1405 1403 1402 1399 1398 1396 1393 1391 1389 1388 1386 1384 1382 1381 1378 1377 1374 1372 1369 1368 1365 1363 1361 1359 1356 1354 1352 1350 1348 1346 1343 1341 1339 1336 1333 1330 1328 1326 1323 1321 1319 1317 1314 1312 1310 1307 1305 1303 1302 1300 1298 1296 1294 1292 1289 1287 1284 1282 1281 1280 1280 1280 1282 1284 1287 1287
1411 1409 1407 1405 1403 1401 1399 1397 1395 1393 1391 1389 1387 1386 1384 1382 1380 1378 1376 1374 1372 1369 1367 1365 1363 1361 1358 1356 1354 1352 1350 1348 1346 1343 1341 1339 1337 1334 1331 1328 1325 1323 1321 1318 1316 1314 1312 1309 1307 1304 1302 1301 1299 1297 1295 1293 1291 1289 1286 1283 1282 1280 1280 1280 1279 1278 1279 1281 1284
1412 1410 1408 1406 1403 1401 1399 1398 1395 1393 1391 1389 1388 1386 1384 1382 1380 1378 1377 1374 1372 1370 1368 1366 1363 1361 1359 1357 1354 1352 1350 1348 1346 1344 1341 1339 1337 1334 1332 1329 1326 1323 1321 1318 1316 1314 1312 1309 1307 1304 1302 1300 1298 1296 1294 1292 1290 1288 1285 1283 1281 1279 1279 1278 1278 1278 1277 1276 1278
1412 1410 1408 1406 1404 1402 1400 1398 1396 1393 1391 1389 1388 1386 1384 1382 1381 1379 1377 1375 1373 1371 1368 1366 1364 1362 1359 1357 1355 1352 1350 1348 1346 1343 1341 1339 1337 1335 1332 1329 1327 1324 1321 1319 1316 1314 1312 1310 1308 1305 1303 1301 1299 1296 1293 1291 1288 1285 1283 1281 1280 1278 1278 1278 1277 1277 1276 1276 1275
1412 1410 1408 1406 1404 1402 1400 1398 1396 1394 1392 1390 1388 1386 1385 1383 1381 1379 1378 1375 1373 1371 1369 1367 1365 1363 1360 1358 1355 1352 1350 1347 1345 1343 1341 1339 1337 1335 1333 1330 1327 1324 1322 1319 1317 1314 1312 1310 1308 1306 1304 1301 1299 1297 1294 1291 1287 1284 1281 1280 1278 1278 1277 1277 1276 1276 1276 1275 1275
1413 1411 1409 1407 1405 1403 1401 1399 1397 1395 1393 1391 1389 1387 1385 1383 1382 1380 1378 1376 1373 1371 1369 1367 1365 1363 1360 1358 1355 1353 1350 1347 1345 1343 1341 1338 1337 1335 1333 1330 1328 1325 1323 1320 1318 1316 1313 1311 1309 1307 1305 1303 1301 1298 1295 1292 1288 1284 1281 1279 1278 1278 1277 1276 1276 1276 1276 1275 1275
Wind_Speed
19 20 21 21 20 19 19 20 20 21 21 22 22 22 22 22 23 23 24 24 25 25 26 26 26 26 27 27 28 28 29 30 30 31 31 32 32 32 33 33 33 33 33 33 34 35 36 37 37 37 38 38 39 39 40 39 39 38 38 40 42 44 47 48 50 50 50 48 44
17 18 20 20 20 19 19 19 20 21 22 23 24 24 25 25 25 25 25 26 27 27 27 27 27 28 28 28 28 28 28 29 29 30 31 32 33 34 34 34 34 35 35 35 36 36 36 36 37 37 38 38 39 40 40 41 40 40 39 39 41 43 45 48 50 51 51 50 48
15 16 18 19 20 20 21 21 21 22 22 23 25 26 26 27 27 28 28 28 28 28 28 28 29 29 29 29 29 29 29 30 30 31 32 32 33 34 35 35 35 36 37 37 38 38 38 38 37 38 38 39 39 40 40 41 41 41 40 40 40 41 44 47 50 51 51 51 50
13 14 15 17 19 20 21 22 23 23 23 23 24 25 26 27 28 29 29 30 30 30 30 30 31 31 31 31 32 32 32 32 32 32 32 32 33 34 35 35 36 37 37 38 39 40 40 39 39 39 39 39 40 40 41 40 40 41 41 40 40 41 43 45 48 50 50 50 51
11 12 13 15 16 18 20 22 23 24 24 24 23 24 25 26 28 29 30 31 31 31 31 32 32 33 34 34 33 33 33 34 34 33 33 33 33 34 34 34 36 36 37 39 39 40 41 40 40 40 40 40 41 41 41 41 41 41 41 40 41 42 43 44 47 49 50 50 50
12 12 13 14 15 16 18 20 22 23 24 25 25 25 26 26 26 27 28 29 30 31 32 33 33 34 34 35 35 35 34 34 34 34 35 35 35 35 34 35 35 36 38 39 40 40 41 42 41 41 40 41 41 42 42 42 42 42 41 41 41 42 43 43 44 46 48 50 50
13 13 14 15 16 17 18 19 21 22 24 25 26 27 28 28 28 28 29 29 30 30 31 32 33 34 34 35 35 35 35 35 35 35 36 36 36 36 36 36 36 37 38 40 40 41 42 43 43 42 41 40 40 42 42 42 43 42 42 42 41 42 43 43 43 44 46 48 50
11 12 14 16 18 19 20 21 21 22 23 25 26 27 29 29 30 30 30 31 31 32 32 31 31 31 31 31 33 34 36 37 37 37 37 37 37 38 37 37 37 38 39 40 41 42 42 44 45 45 43 42 41 41 42 43 44 44 44 44 43 42 43 44 44 44 44 45 48
12 12 11 12 14 16 19 21 22 24 25 26 27 28 29 30 31 32 32 32 33 34 35 33 32 31 31 31 32 34 35 37 38 38 39 39 39 39 39 38 38 39 40 40 41 42 43 44 46 46 45 45 44 43 42 42 44 45 46 45 44 43 43 45 45 45 44 43 45
14 13 13 12 12 12 13 15 18 21 23 26 28 29 31 32 33 34 34 35 36 37 38 38 37 36 35 34 35 35 36 37 38 39 40 41 42 42 42 42 42 42 41 41 40 41 42 44 45 45 45 45 46 46 44 43 43 44 46 45 45 45 45 45 46 46 46 45 45
15 14 14 14 14 13 13 14 15 16 18 21 24 27 29 32 34 35 36 36 37 38 40 41 41 40 39 38 38 39 39 39 40 41 42 43 44 45 46 47 47 46 45 43 41 41 41 42 43 44 45 46 47 46 44 42 41 43 45 47 47 47 46 46 46 47 48 48 48
18 16 16 16 16 17 18 18 19 19 19 19 20 22 24 27 29 32 34 35 37 39 41 41 40 40 40 39 40 40 41 42 43 43 44 45 45 46 47 48 49 49 48 46 44 42 41 42 42 43 44 46 47 46 44 41 39 39 42 45 46 47 46 46 46 48 49 50 50
20 19 18 17 17 17 18 19 21 22 23 23 24 24 24 24 25 27 29 32 36 38 40 40 40 40 40 40 40 41 42 43 43 44 45 46 46 46 47 48 48 48 48 47 45 44 44 44 44 44 44 45 46 46 45 42 38 37 37 40 43 44 44 44 46 48 51 51 52
22 21 20 19 19 18 18 18 19 20 21 23 25 26 27 28 29 29 30 31 32 35 37 40 42 42 42 41 41 42 42 43 44 44 45 47 47 48 48 49 48 47 46 47 47 46 46 47 47 47 46 46 46 46 46 45 42 40 39 40 42 44 45 45 46 48 51 53 53
24 23 22 21 20 20 19 19 19 19 19 20 22 23 26 28 30 32 33 33 34 34 35 36 38 41 43 43 44 44 44 44 44 45 46 47 49 49 50 50 49 47 46 47 48 49 49 49 51 50 49 49 48 48 48 47 46 45 45 45 46 48 49 49 49 50 52 54 54
27 26 25 24 23 23 23 22 22 22 21 21 21 21 21 23 26 28 30 32 34 36 36 36 36 38 41 44 45 46 45 45 44 44 45 47 49 50 52 53 52 50 48 47 49 50 51 51 52 52 52 52 51 51 50 49 49 48 48 48 49 50 51 51 52 53 54 55 55
28 28 27 27 27 26 26 26 25 25 24 23 22 21 20 19 19 20 21 23 26 30 34 37 38 37 37 39 42 43 44 44 45 45 46 48 49 50 51 52 53 52 50 48 49 51 52 52 53 53 53 53 54 54 53 53 52 51 51 50 50 50 51 52 54 54 54 54 54
28 28 28 29 28 28 27 27 27 27 26 25 24 23 22 20 18 16 15 14 16 20 25 30 33 35 36 34 33 35 38 40 42 44 45 47 47 48 48 49 51 52 51 50 49 50 51 52 52 53 53 53 54 55 55 55 54 53 53 52 51 51 52 53 53 53 51 51 53
27 28 29 29 29 29 28 28 28 28 27 26 26 25 24 23 21 19 17 15 14 13 13 14 17 22 26 26 25 25 27 30 32 34 36 38 41 43 45 47 49 50 51 50 50 50 50 50 51 52 53 54 55 55 56 56 55 55 55 54 53 53 53 53 53 52 52 52 54
27 27 28 29 29 29 29 29 29 29 28 27 27 26 26 25 24 23 23 22 21 19 18 15 11 9 11 13 16 18 21 23 24 25 27 29 31 34 38 43 47 49 51 51 51 50 49 49 50 52 53 55 57 57 57 57 56 56 56 56 55 55 54 54 53 54 55 56 57
26 27 27 28 28 29 29 29 30 30 29 29 28 28 27 26 26 25 25 25 24 24 23 22 20 18 16 15 14 14 14 15 16 17 20 23 25 28 32 36 40 45 49 51 53 52 51 51 51 52 53 55 58 58 58 58 57 58 57 56 55 55 56 56 56 55 56 58 58
26 26 26 26 27 27 28 28 29 29 29 29 29 29 28 28 27 27 26 25 25 25 25 26 25 25 24 23 23 22 22 21 20 19 17 17 19 22 26 30 34 37 41 47 51 53 53 53 54 54 55 57 58 58 56 56 57 58 57 55 53 53 54 56 58 58 57 56 56
26 26 25 25 25 26 26 26 27 28 28 29 29 30 30 30 29 28 28 27 27 27 27 27 27 27 26 26 26 26 27 27 28 27 27 25 23 19 17 16 20 25 29 28 32 36 38 39 43 47 52 56 57 57 55 53 52 54 55 54 52 52 53 54 54 55 55 55 55
28 27 26 25 25 25 25 25 26 26 27 28 29 29 30 30 30 30 30 30 29 29 29 29 29 28 28 27 26 26 26 27 28 28 29 29 29 27 23 18 11 7 5 7 10 12 14 17 23 30 37 43 48 52 54 53 51 51 52 53 53 53 53 52 50 49 51 53 55
30 29 28 27 27 26 26 26 26 26 26 27 28 28 29 29 30 30 31 31 31 31 31 31 30 30 30 29 28 27 27 27 27 27 27 27 27 27 27 25 21 18 15 15 15 16 16 18 21 25 30 35 40 45 48 51 52 53 53 54 54 53 52 51 50 51 52 54 57
31 31 30 30 29 29 28 28 27 27 26 26 27 27 28 29 29 30 31 31 31 32 32 32 32 31 31 30 29 28 28 27 27 26 26 26 26 26 26 27 27 26 25 24 23 22 21 21 22 25 29 34 38 41 43 47 51 53 55 56 55 54 54 53 53 54 56 57 58
32 32 32 32 32 32 31 31 30 29 28 28 27 27 28 28 29 29 30 30 31 31 32 32 32 32 32 31 30 29 28 27 27 26 26 26 26 26 26 27 28 29 29 29 28 27 27 26 24 23 25 30 36 40 42 45 49 51 54 55 55 55 54 54 55 56 56 55 56
32 32 33 33 33 33 33 33 33 32 31 31 30 29 28 28 28 28 29 29 30 31 32 32 32 32 32 32 31 31 29 28 27 27 27 26 27 26 26 26 27 28 29 30 30 29 29 30 29 28 25 24 29 36 42 45 47 48 50 51 53 54 54 54 54 54 54 54 55
30 31 31 32 32 33 33 34 34 34 34 33 32 31 30 29 29 28 28 29 29 31 32 32 32 32 32 32 32 31 31 31 30 29 29 28 28 28 28 27 27 27 28 29 30 30 31 31 32 32 31 26 22 26 34 40 44 46 47 48 50 51 52 53 53 54 54 54 55
28 29 29 29 30 30 31 32 32 33 33 33 33 33 33 32 31 30 30 29 30 30 31 31 31 32 31 31 31 31 32 32 32 32 32 32 31 30 30 30 29 28 28 29 30 31 32 32 33 33 34 32 26 18 18 26 34 40 45 48 51 52 53 54 54 54 55 55 56
26 26 26 27 27 27 28 28 29 29 30 31 32 33 33 33 33 32 32 31 30 30 30 30 31 32 31 31 31 31 31 32 33 34 34 34 34 33 33 32 31 31 30 30 30 31 32 33 34 34 34 33 31 25 17 12 17 25 34 41 47 52 55 57 56 56 56 56 56
25 25 24 24 25 25 25 25 26 26 27 28 29 30 31 32 32 32 32 32 31 30 30 31 32 32 32 32 32 31 31 32 33 33 34 35 35 35 35 34 34 33 32 32 31 31 32 33 34 34 34 34 33 31 26 19 13 11 17 25 34 44 51 56 58 57 56 55 55
26 25 25 25 25 24 24 24 24 24 24 25 26 27 28 30 30 31 32 32 32 31 31 31 31 32 32 32 32 32 31 31 32 33 33 34 34 35 35 35 35 35 34 33 33 32 31 32 33 34 34 34 33 33 31 27 22 15 9 11 18 27 37 47 53 55 55 54 54
30 29 29 28 28 28 27 26 26 25 25 25 26 26 27 28 30 31 32 32 32 31 31 30 30 31 31 31 31 31 31 31 31 32 33 33 33 34 34 35 35 35 35 34 34 33 32 32 32 32 33 34 33 33 32 31 28 24 17 10 9 15 23 30 39 47 52 54 54
33 33 33 32 32 32 32 31 30 29 29 29 29 29 29 29 29 30 31 31 31 31 30 30 30 30 31 31 31 30 31 31 32 32 32 33 33 33 34 35 35 35 35 35 35 35 34 33 32 32 32 33 33 32 32 31 30 28 25 19 11 7 13 19 25 33 43 51 54
34 34 35 35 35 35 35 35 34 33 32 32 31 31 31 31 30 30 31 31 31 31 30 30 30 31 31 32 32 31 30 31 31 32 32 32 33 33 34 34 35 35 35 36 36 36 36 35 33 32 32 32 33 32 31 30 30 29 28 25 19 11 6 10 14 19 26 36 46
35 35 35 35 35 35 36 36 36 35 34 33 32 32 32 32 31 31 32 32 31 31 31 30 30 31 31 32 32 31 31 30 30 31 31 31 32 33 33 34 35 35 35 36 36 37 37 37 35 34 33 33 33 33 32 31 30 29 28 27 24 20 15 9 7 10 14 19 28
35 35 35 36 36 36 36 37 37 37 36 34 33 32 32 32 32 32 32 33 32 31 31 30 30 31 31 32 32 32 31 31 31 31 31 31 31 32 33 33 35 35 36 35 36 36 37 38 37 36 34 33 33 33 33 33 32 30 29 28 26 25 22 18 13 9 9 13 18
35 35 35 36 36 36 36 37 37 37 36 35 33 33 33 33 31 31 31 33 32 31 30 30 30 30 30 31 32 32 32 32 32 32 31 31 31 32 33 33 35 35 36 35 35 36 37 37 38 37 36 34 33 33 33 34 34 32 31 29 28 26 25 23 21 16 11 11 15
34 35 35 36 36 36 36 37 37 37 36 35 34 33 33 33 31 30 31 32 32 32 31 30 29 29 29 30 31 32 33 33 33 33 33 32 31 32 33 34 35 36 36 35 35 36 36 37 37 37 37 36 34 33 33 33 33 33 32 31 30 28 27 25 24 22 18 13 11
33 34 34 35 35 35 35 36 36 36 35 34 33 33 33 33 32 30 30 31 32 32 31 31 30 30 29 29 30 31 32 33 34 34 34 33 33 33 33 34 35 36 36 35 35 36 36 36 37 37 37 37 36 35 34 33 33 33 33 32 31 30 29 27 25 24 22 19 14
Wind_Direction
255 250 247 245 243 243 242 241 241 240 240 240 240 241 242 244 246 248 249 249 250 251 251 252 252 252 252 254 253 251 249 248 245 243 242 243 243 244 245 246 247 248 248 248 247 246 245 244 242 242 242 241 241 241 241 240 240 240 241 241 241 241 242 243 243 241 240 240 240
259 255 250 247 245 243 243 243 243 243 243 243 243 244 244 245 247 248 250 252 253 253 253 253 254 255 255 255 254 251 249 247 245 244 243 244 244 244 244 245 246 246 247 247 247 246 246 245 244 243 243 242 242 241 241 240 239 240 240 241 241 241 241 242 243 243 241 240 240
265 260 255 251 248 246 244 244 244 245 246 247 249 249 250 250 250 251 252 253 254 254 254 255 255 255 255 254 254 253 251 250 249 247 246 245 245 245 245 245 245 246 246 246 246 246 245 245 244 244 243 243 242 241 241 240 239 239 240 241 241 241 241 241 243 243 242 240 239
274 269 263 258 254 251 250 249 249 250 251 252 254 255 256 255 255 255 255 255 254 254 255 255 256 256 256 255 256 256 255 253 251 249 247 246 245 245 246 246 246 246 246 246 246 246 246 245 244 244 244 243 242 241 240 240 239 238 239 240 241 241 241 241 242 243 242 240 238
292 283 275 267 262 259 258 257 256 256 256 256 256 257 258 259 259 259 258 258 257 257 257 258 258 258 258 257 256 255 254 253 252 250 248 247 247 247 246 246 246 246 246 247 246 246 246 245 244 244 243 243 242 241 240 239 238 238 238 239 241 241 241 241 241 242 242 241 238
304 297 290 282 275 269 266 264 263 262 261 259 258 257 257 258 258 259 259 260 261 261 261 261 259 259 258 258 257 255 254 252 250 249 248 248 248 248 247 247 246 246 247 247 247 247 246 246 244 243 242 242 241 241 240 239 239 238 238 238 239 240 241 241 240 240 241 240 239
307 302 297 292 287 282 276 271 268 266 265 263 262 260 259 258 258 258 260 261 263 264 263 262 260 259 258 258 257 255 253 251 250 249 249 249 249 248 248 248 248 247 247 247 247 247 247 247 246 243 241 240 240 241 240 239 238 237 237 237 237 238 239 239 239 239 239 239 238
330 315 305 298 294 291 287 282 276 272 269 268 266 265 264 263 262 261 262 263 263 263 262 262 261 260 259 257 256 255 253 252 251 250 250 250 250 249 249 249 249 248 247 246 246 246 247 247 247 245 241 239 239 240 239 238 237 236 235 236 236 237 238 238 239 239 238 237 237
2 352 337 321 309 300 293 288 284 281 277 275 274 273 272 270 268 266 266 265 264 263 263 262 262 260 259 257 256 255 254 253 252 250 250 249 248 248 248 248 248 248 247 246 245 245 246 247 247 246 244 240 239 239 238 236 234 234 233 234 235 236 237 237 238 238 239 238 237
355 352 348 343 331 317 303 295 290 286 282 279 278 277 276 275 273 271 269 267 266 265 264 264 263 261 258 256 255 254 253 252 251 250 249 248 247 247 248 248 248 248 247 246 245 244 245 246 247 247 247 244 241 239 236 235 232 231 231 232 234 235 236 236 236 237 238 239 238
349 339 330 323 315 306 299 296 293 290 287 285 282 280 278 276 274 273 271 269 267 265 265 265 264 262 260 257 255 254 253 252 251 250 250 249 249 249 250 250 250 249 248 246 245 244 244 245 246 248 249 248 246 243 239 235 232 230 230 230 232 233 234 234 235 235 236 238 239
4 352 338 324 312 301 293 288 285 284 284 286 285 284 282 279 277 275 273 270 267 265 265 265 264 262 260 259 257 256 254 254 253 253 253 253 253 253 254 255 255 254 250 246 244 243 243 243 244 246 248 250 250 248 245 241 236 232 230 230 231 231 232 232 233 234 235 237 238
17 8 358 346 333 319 307 297 290 285 283 283 282 282 283 281 280 278 276 273 270 268 266 265 264 262 261 259 258 257 257 257 257 257 256 256 256 256 258 260 261 258 253 246 243 242 242 242 243 244 245 247 249 250 250 248 245 240 236 233 234 234 234 234 234 235 236 236 237
27 21 13 4 354 343 332 322 312 304 299 296 290 288 285 281 277 276 276 275 274 272 271 269 267 265 263 261 261 261 261 262 263 262 261 260 259 260 262 264 265 262 255 247 243 241 241 242 242 243 243 245 246 248 249 250 250 248 245 242 241 241 241 240 238 237 237 237 236
34 30 25 19 13 6 359 352 344 337 331 324 314 305 297 290 283 279 277 276 275 276 276 275 272 269 266 264 264 265 267 269 269 269 266 264 263 264 266 266 266 263 257 249 244 242 241 242 242 242 243 244 245 246 247 248 249 249 248 247 246 245 245 244 242 239 237 237 236
36 34 32 28 25 22 18 15 11 7 2 355 346 334 322 310 299 292 288 284 281 279 279 279 278 275 270 266 264 264 266 268 269 269 269 267 266 265 264 264 264 262 259 253 247 243 242 242 243 244 244 244 245 245 246 246 246 246 246 246 245 245 245 245 242 238 235 235 236
36 35 34 32 30 28 25 24 22 20 17 14 9 2 352 339 325 315 307 300 292 286 283 280 280 278 275 270 267 265 263 263 263 264 264 264 262 259 257 257 258 260 259 256 251 247 245 245 247 248 248 247 247 246 245 245 245 245 244 244 244 244 244 244 242 238 234 233 234
35 34 33 32 30 29 27 26 25 24 23 22 21 18 13 6 358 350 342 330 314 301 291 284 281 277 274 273 271 269 267 265 264 264 263 262 260 257 254 253 254 256 257 256 253 250 248 249 250 252 252 251 249 248 246 245 243 243 242 242 242 242 243 243 242 240 236 233 234
32 32 31 29 28 27 26 26 25 24 24 25 26 26 24 21 18 16 13 8 359 346 330 310 290 276 269 267 268 268 268 268 268 268 268 267 266 263 260 256 254 254 254 253 252 252 252 252 252 252 253 252 251 249 247 244 242 241 241 241 241 241 241 241 242 242 241 239 237
30 30 29 27 26 25 24 23 23 23 23 24 26 27 27 28 27 26 25 23 23 23 21 17 3 329 298 285 279 275 273 272 272 272 272 270 269 268 265 262 259 256 253 251 250 251 253 254 253 252 252 251 249 247 244 242 241 240 240 240 240 240 240 240 241 242 242 241 240
27 28 27 26 24 23 23 23 22 22 22 22 23 25 26 27 28 27 26 25 26 26 26 27 28 24 14 359 345 332 319 308 300 292 283 274 269 266 264 263 261 258 255 251 249 249 252 254 254 252 251 250 247 245 242 239 238 238 238 239 240 240 241 241 240 240 240 240 240
23 23 24 25 24 24 23 23 23 23 22 22 22 23 23 24 24 24 24 24 23 23 24 25 27 29 27 23 18 13 9 5 359 351 337 316 296 281 271 265 262 260 258 255 251 250 251 252 252 252 250 249 248 245 243 239 236 235 235 237 239 240 241 240 238 237 237 237 238
17 18 19 21 22 22 22 22 23 23 23 23 22 21 22 21 21 22 22 21 21 20 19 19 21 23 25 24 20 15 12 9 7 5 3 359 350 337 317 294 273 264 263 267 264 261 259 257 254 253 252 251 249 248 246 243 238 234 233 235 238 240 240 238 235 233 232 232 234
14 14 15 16 17 18 18 19 21 21 21 21 21 21 21 20 20 20 20 19 19 18 17 16 16 17 19 19 17 13 9 6 3 1 1 1 360 358 355 351 340 325 324 338 329 317 302 287 275 266 259 254 251 249 247 244 239 235 234 235 237 239 239 238 236 233 232 232 235
12 12 12 12 13 14 14 15 16 18 19 19 19 20 20 19 19 18 18 18 18 18 17 16 15 15 15 15 13 11 8 5 3 360 357 357 357 357 357 358 359 359 356 351 345 335 322 306 293 280 268 258 253 249 245 242 239 238 237 238 238 238 238 238 238 238 239 239 239
11 11 11 11 11 10 10 11 11 13 14 15 16 17 18 17 17 17 17 17 17 17 16 16 16 15 14 13 11 9 6 4 2 360 358 356 356 355 355 356 358 359 359 355 351 344 334 320 303 286 272 262 255 250 245 241 239 238 238 239 240 239 239 239 239 240 241 242 242
10 10 9 9 9 8 8 8 8 8 9 11 12 13 14 15 15 15 15 15 15 15 15 15 15 14 13 12 11 9 6 3 1 359 357 356 356 355 354 354 355 357 358 358 356 352 348 342 331 313 290 270 258 251 246 243 240 238 237 238 239 240 240 239 240 241 241 240 241
9 9 9 8 7 7 6 5 5 6 6 7 7 8 9 11 12 13 13 14 14 14 13 13 13 12 11 11 10 9 7 5 3 1 359 358 357 357 355 354 353 353 352 352 352 352 351 349 346 340 325 297 270 255 248 244 242 239 237 235 236 237 239 240 240 240 239 238 239
10 9 9 8 8 7 6 5 4 4 4 3 3 4 4 6 7 8 9 11 12 12 11 10 10 10 9 9 8 7 7 6 5 4 3 2 1 0 359 358 356 353 350 349 347 347 346 346 346 346 344 334 306 272 254 246 243 241 239 237 236 237 238 239 239 239 238 237 238
11 10 10 9 9 8 7 5 4 3 3 2 1 1 1 2 3 3 4 6 8 9 8 7 7 8 8 7 5 5 5 5 5 5 4 3 3 3 2 1 359 356 353 350 347 344 343 343 343 344 345 346 339 316 273 250 244 243 242 241 241 241 241 241 240 240 240 240 241
13 12 11 11 10 9 8 7 5 4 4 3 1 0 0 0 0 360 360 1 2 3 3 3 4 5 6 5 4 3 2 2 3 3 3 3 2 2 2 1 360 358 356 353 349 345 342 341 341 342 343 345 345 342 327 288 255 244 242 243 242 243 244 245 245 244 244 244 243
15 14 14 14 13 12 10 9 7 7 6 5 3 2 1 0 360 358 357 358 358 358 358 358 360 1 2 2 3 1 359 359 360 0 1 1 1 1 1 1 360 358 357 355 352 348 344 341 340 340 341 342 343 343 341 334 313 270 245 240 240 242 244 245 246 246 245 243 242
15 15 16 16 15 14 13 12 10 10 9 9 7 6 4 2 1 359 358 357 357 357 356 356 356 356 357 358 0 360 357 356 357 357 358 357 358 358 359 360 360 359 358 357 355 352 349 344 341 339 339 339 340 341 342 340 337 328 298 250 236 236 239 241 243 243 242 241 239
9 11 12 13 13 13 13 13 12 12 12 13 12 10 8 6 4 1 359 358 357 356 355 355 354 352 352 354 357 359 358 356 355 355 355 355 355 355 356 358 359 359 358 358 357 355 353 349 344 341 339 339 339 340 341 341 341 339 334 316 255 231 230 234 238 239 239 239 238
3 4 5 6 7 7 8 9 9 10 11 12 12 11 10 8 6 4 1 358 357 355 355 353 352 350 349 350 353 356 357 357 356 355 355 354 354 354 354 356 356 357 358 358 358 357 355 353 348 344 341 339 339 340 341 341 342 341 339 335 321 257 223 223 229 235 237 238 238
359 359 360 0 1 2 3 3 4 6 7 8 7 6 6 6 6 5 3 1 359 357 356 354 352 350 349 349 351 352 353 355 355 356 356 355 354 354 354 354 355 355 356 358 359 359 357 355 352 347 343 340 340 341 341 342 343 342 341 339 336 325 275 223 218 223 230 234 236
358 358 358 358 359 360 0 1 2 3 4 4 2 0 359 0 1 2 3 3 2 0 359 356 354 352 351 350 349 349 350 351 353 355 357 357 356 355 354 354 355 355 355 357 358 359 359 358 355 351 346 342 340 340 342 343 344 344 343 341 338 334 326 304 251 221 216 221 227
358 358 358 358 359 359 359 0 1 2 3 3 0 357 356 356 357 358 359 1 2 2 1 360 357 354 352 349 348 347 348 349 352 354 356 358 358 357 355 355 355 356 356 356 358 359 360 360 358 355 351 346 342 340 340 342 343 344 344 342 339 335 330 323 311 279 232 214 214
358 358 357 358 358 358 359 359 1 2 2 2 359 356 355 356 355 354 355 357 359 1 2 2 360 357 354 351 348 347 348 349 351 353 355 357 358 358 358 357 357 357 357 357 358 359 360 0 360 358 355 351 346 342 340 339 340 341 342 342 341 337 333 327 321 311 286 240 218
358 357 357 357 357 357 357 358 359 360 0 0 358 356 355 355 354 353 352 352 355 358 360 1 2 1 358 355 352 350 349 350 351 352 353 355 356 358 359 359 358 358 358 358 358 359 359 0 0 360 358 356 352 347 343 340 339 338 339 340 340 339 335 330 325 319 310 290 247
358 357 356 356 356 355 356 356 357 357 358 358 357 355 353 354 354 352 351 350 352 354 356 357 360 2 3 1 358 355 353 352 351 352 352 353 354 356 358 359 359 359 358 359 359 359 359 360 360 0 360 359 356 353 349 346 343 341 339 338 339 338 336 331 327 321 315 308 292